Quantico, VA

8:54 PM EST on November 20, 2019 (GMT -0500)
Quantico Marine Corps Air Facility

Weather History for KNYG - October, 2019

Change the Weather History Date:

Thursday, October 17, 2019

  Actual Average Record
Temperature  
Mean Temperature 56 °F -  
Max Temperature 64 °F 64 °F 79 °F (2016)
Min Temperature 48 °F 45 °F 39 °F (2001)
Degree Days  
Heating Degree Days 9    
Growing Degree Days 6 (Base 50)    
Moisture  
Dew Point 37 °F    
Average Humidity 52    
Maximum Humidity 69    
Minimum Humidity 37    
Precipitation  
Precipitation 0.00 in - - ()
Sea Level Pressure  
Sea Level Pressure 29.72 in    
Wind  
Wind Speed 7 mph (WNW)    
Max Wind Speed 22 mph    
Max Gust Speed 28 mph    
Visibility 10 miles    
Events      
Averages and records for this station are not official NWS values.
T = Trace of Precipitation, MM = Missing Value Source: NWS Daily Summary

Daily Weather History Graph

Daily Weather History Graph

Search for Another Location

Airport or City:

Astronomy

Oct. 17, 2019 Rise Set
Actual Time 7:20 AM EDT 6:28 PM EDT
Civil Twilight 6:53 AM EDT 6:55 PM EDT
Nautical Twilight 6:22 AM EDT 7:26 PM EDT
Astronomical Twilight 5:51 AM EDT 7:56 PM EDT
Moon 9:01 PM EDT (10/17) 10:47 AM EDT (10/17)
Length of Visible Light 12h 02m
Length of Day
11h 08m
Waning Gibbous, 87% of the Moon is Illuminated
Oct 17
Waning Gibbous
Oct 21
Last Quarter
Oct 27
New
Nov 4
First Quarter
Nov 12
Full

Hourly Weather History & Observations

Time (EDT) Temp. Dew Point Humidity Pressure Visibility Wind Dir Wind Speed Gust Speed Precip Events Conditions
12:56 AM 51.1 °F 37.9 °F 61% 29.62 in 10.0 mi WSW 3.5 mph - N/A   Clear
1:56 AM 50.0 °F 37.9 °F 63% 29.62 in 10.0 mi West 4.6 mph - N/A   Clear
2:56 AM 48.9 °F 37.9 °F 66% 29.62 in 10.0 mi WSW 4.6 mph - N/A   Clear
3:56 AM 48.0 °F 37.9 °F 68% 29.61 in 10.0 mi West 4.6 mph - N/A   Clear
4:56 AM 48.9 °F 39.0 °F 69% 29.64 in 10.0 mi West 4.6 mph - N/A   Overcast
5:56 AM 50.0 °F 37.9 °F 63% 29.64 in 10.0 mi WNW 4.6 mph - N/A   Clear
6:56 AM 51.1 °F 37.9 °F 61% 29.66 in 10.0 mi WNW 4.6 mph - N/A   Partly Cloudy
7:56 AM 55.0 °F 37.0 °F 51% 29.66 in 10.0 mi WNW 11.5 mph 23.0 mph N/A   Scattered Clouds
8:56 AM 54.0 °F 37.9 °F 55% 29.69 in 10.0 mi SW 8.1 mph - N/A   Mostly Cloudy
9:56 AM 55.9 °F 37.0 °F 49% 29.70 in 10.0 mi West 8.1 mph - N/A   Mostly Cloudy
10:56 AM 61.0 °F 37.9 °F 42% 29.71 in 10.0 mi NW 12.7 mph - N/A   Mostly Cloudy
11:56 AM 62.1 °F 37.0 °F 39% 29.72 in 10.0 mi NW 21.9 mph 27.6 mph N/A   Mostly Cloudy
12:56 PM 63.0 °F 37.0 °F 38% 29.71 in 10.0 mi NW 15.0 mph 26.5 mph N/A   Mostly Cloudy
1:56 PM 62.1 °F 36.0 °F 38% 29.73 in 10.0 mi NW 16.1 mph 27.6 mph N/A   Mostly Cloudy
2:56 PM 64.0 °F 37.0 °F 37% 29.71 in 10.0 mi NNW 16.1 mph 21.9 mph N/A   Mostly Cloudy
3:56 PM 62.1 °F 36.0 °F 38% 29.74 in 10.0 mi NNW 12.7 mph 21.9 mph N/A   Mostly Cloudy
4:56 PM 62.1 °F 36.0 °F 38% 29.75 in 10.0 mi NNW 16.1 mph 24.2 mph N/A   Scattered Clouds
5:56 PM 59.0 °F 36.0 °F 42% 29.76 in 10.0 mi North 9.2 mph - N/A   Clear
6:56 PM 55.9 °F 36.0 °F 47% 29.78 in 10.0 mi North 5.8 mph - N/A   Clear
7:56 PM 54.0 °F 37.0 °F 53% 29.82 in 10.0 mi North 6.9 mph - N/A   Clear
8:56 PM 52.0 °F 39.9 °F 63% 29.83 in 10.0 mi Calm Calm - N/A   Clear
9:56 PM 51.1 °F 37.0 °F 59% 29.86 in 10.0 mi NW 5.8 mph - N/A   Clear
10:56 PM 51.1 °F 37.0 °F 59% 29.87 in 10.0 mi NW 9.2 mph - N/A   Clear
11:56 PM 51.1 °F 35.1 °F 54% 29.88 in 10.0 mi West 4.6 mph - N/A   Clear